Weather History for Bullhead City, AZ

Change the Weather History Date:

Wednesday, February 13, 2013

  Actual Average Record
Temperature  
Mean Temperature 57 °F -  
Max Temperature 66 °F 65 °F 81 °F (1991)
Min Temperature 48 °F 47 °F 32 °F (1989)
Degree Days  
Heating Degree Days 8    
Growing Degree Days 7 (Base 50)    
Moisture  
Dew Point 22 °F    
Average Humidity 27    
Maximum Humidity 35    
Minimum Humidity 19    
Precipitation  
Precipitation 0.00 in - - ()
Sea Level Pressure  
Sea Level Pressure 30.21 in    
Wind  
Wind Speed 13 mph (North)    
Max Wind Speed 26 mph    
Max Gust Speed 36 mph    
Visibility 10 miles    
Events      
Averages and records for this station are not official NWS values.
T = Trace of Precipitation, MM = Missing Value Source: NWS Daily Summary

Daily Weather History Graph

Daily Weather History Graph

Search for Another Location

Airport:

Trip Planner

Search our weather history database for the weather conditions in past years. The results will help you decide how hot, cold, wet, or windy it might be!

Date:

Astronomy

Feb. 13, 2013 Rise Set
Actual Time 7:26 AM MST 6:19 PM MST
Civil Twilight 7:00 AM MST 6:45 PM MST
Nautical Twilight 6:30 AM MST 7:15 PM MST
Astronomical Twilight 6:00 AM MST 7:44 PM MST
Moon 9:08 AM MST (2/13) 10:14 PM MST (2/13)
Length of Visible Light 11h 45m
Length of Day
10h 53m
Waxing Crescent, 14% of the Moon is Illuminated
Feb 13
Waxing Crescent
Feb 17
First Quarter
Feb 25
Full
Mar 4
Last Quarter
Mar 11
New

Hourly Weather History & Observations

Time (MST) Temp. Dew Point Humidity Pressure Visibility Wind Dir Wind Speed Gust Speed Precip Events Conditions
12:15 AM 48.2 °F 14.0 °F 25% 30.28 in 10.0 mi NE 6.9 mph - N/A   Clear
12:35 AM 50.0 °F 14.0 °F 24% 30.28 in 10.0 mi NNE 8.1 mph - N/A   Clear
12:55 AM 50.0 °F 14.0 °F 24% 30.28 in 10.0 mi NE 10.4 mph - N/A   Clear
1:15 AM 48.2 °F 14.0 °F 25% 30.27 in 10.0 mi NE 11.5 mph - N/A   Clear
1:35 AM 50.0 °F 14.0 °F 24% 30.27 in 10.0 mi NE 12.7 mph - N/A   Clear
1:55 AM 50.0 °F 14.0 °F 24% 30.26 in 10.0 mi ENE 11.5 mph - N/A   Clear
2:15 AM 48.2 °F 14.0 °F 25% 30.26 in 10.0 mi NE 10.4 mph - N/A   Clear
2:35 AM 48.2 °F 14.0 °F 25% 30.26 in 10.0 mi North 4.6 mph - N/A   Clear
2:55 AM 48.2 °F 15.8 °F 27% 30.26 in 10.0 mi North 5.8 mph - N/A   Clear
3:15 AM 48.2 °F 15.8 °F 27% 30.26 in 10.0 mi NNE 11.5 mph - N/A   Clear
3:35 AM 50.0 °F 15.8 °F 26% 30.26 in 10.0 mi NNE 13.8 mph - N/A   Clear
3:55 AM 48.2 °F 15.8 °F 27% 30.26 in 10.0 mi NNE 9.2 mph - N/A   Clear
4:15 AM 48.2 °F 17.6 °F 30% 30.25 in 10.0 mi NNE 13.8 mph - N/A   Clear
4:35 AM 48.2 °F 17.6 °F 30% 30.25 in 10.0 mi NNE 13.8 mph - N/A   Clear
5:15 AM 48.2 °F 19.4 °F 32% 30.25 in 10.0 mi NNE 17.3 mph - N/A   Clear
5:35 AM 48.2 °F 19.4 °F 32% 30.25 in 10.0 mi NNE 13.8 mph - N/A   Clear
5:55 AM 48.2 °F 19.4 °F 32% 30.25 in 10.0 mi NNE 15.0 mph 23.0 mph N/A   Clear
6:15 AM 48.2 °F 21.2 °F 34% 30.25 in 10.0 mi NE 15.0 mph - N/A   Clear
6:35 AM 48.2 °F 21.2 °F 34% 30.25 in 10.0 mi NE 15.0 mph - N/A   Clear
6:55 AM 48.2 °F 19.4 °F 32% 30.25 in 10.0 mi NE 12.7 mph - N/A   Clear
7:15 AM 48.2 °F 21.2 °F 34% 30.25 in 10.0 mi NNE 15.0 mph - N/A   Clear
7:35 AM 48.2 °F 21.2 °F 34% 30.26 in 10.0 mi NNE 12.7 mph - N/A   Clear
7:55 AM 48.2 °F 21.2 °F 34% 30.25 in 10.0 mi NNE 16.1 mph - N/A   Clear
8:15 AM 48.2 °F 21.2 °F 34% 30.26 in 10.0 mi NNE 18.4 mph - N/A   Clear
8:35 AM 50.0 °F 21.2 °F 32% 30.27 in 10.0 mi NNE 16.1 mph - N/A   Clear
8:55 AM 50.0 °F 23.0 °F 35% 30.28 in 10.0 mi NNE 16.1 mph - N/A   Clear
9:15 AM 50.0 °F 23.0 °F 35% 30.28 in 10.0 mi NNE 17.3 mph 24.2 mph N/A   Clear
9:35 AM 51.8 °F 23.0 °F 33% 30.28 in 10.0 mi NNE 19.6 mph 28.8 mph N/A   Clear
9:55 AM 53.6 °F 21.2 °F 28% 30.28 in 10.0 mi North 20.7 mph 26.5 mph N/A   Clear
10:15 AM 53.6 °F 23.0 °F 30% 30.28 in 10.0 mi North 20.7 mph 26.5 mph N/A   Clear
10:35 AM 55.4 °F 23.0 °F 29% 30.28 in 10.0 mi North 18.4 mph 28.8 mph N/A   Clear
10:55 AM 57.2 °F 23.0 °F 27% 30.27 in 10.0 mi NNW 24.2 mph 31.1 mph N/A   Clear
11:15 AM 57.2 °F 23.0 °F 27% 30.26 in 10.0 mi NNW 26.5 mph 35.7 mph N/A   Clear
11:35 AM 57.2 °F 23.0 °F 27% 30.26 in 10.0 mi North 24.2 mph 32.2 mph N/A   Clear
11:55 AM 59.0 °F 23.0 °F 25% 30.25 in 10.0 mi NNW 25.3 mph 32.2 mph N/A   Clear
12:15 PM 59.0 °F 23.0 °F 25% 30.25 in 10.0 mi North 20.7 mph 31.1 mph N/A   Clear
12:35 PM 59.0 °F 23.0 °F 25% 30.24 in 10.0 mi North 18.4 mph 31.1 mph N/A   Clear
12:55 PM 60.8 °F 23.0 °F 23% 30.23 in 10.0 mi North 24.2 mph 28.8 mph N/A   Unknown
1:15 PM 60.8 °F 23.0 °F 23% 30.21 in 10.0 mi North 25.3 mph 28.8 mph N/A   Clear
1:35 PM 62.6 °F 23.0 °F 22% 30.20 in 10.0 mi North 21.9 mph 28.8 mph N/A   Clear
1:55 PM 62.6 °F 23.0 °F 22% 30.19 in 10.0 mi NNW 21.9 mph 29.9 mph N/A   Clear
2:15 PM 62.6 °F 24.8 °F 24% 30.17 in 10.0 mi North 20.7 mph 26.5 mph N/A   Clear
2:35 PM 62.6 °F 24.8 °F 24% 30.16 in 10.0 mi NNW 23.0 mph 26.5 mph N/A   Clear
2:55 PM 64.4 °F 23.0 °F 21% 30.16 in 10.0 mi NNW 25.3 mph 29.9 mph N/A   Clear
3:15 PM 64.4 °F 23.0 °F 21% 30.15 in 10.0 mi NNW 23.0 mph 27.6 mph N/A   Clear
3:35 PM 64.4 °F 24.8 °F 22% 30.14 in 10.0 mi NNW 19.6 mph 27.6 mph N/A   Clear
3:55 PM 64.4 °F 24.8 °F 22% 30.14 in 10.0 mi NNW 18.4 mph 27.6 mph N/A   Clear
4:15 PM 64.4 °F 24.8 °F 22% 30.14 in 10.0 mi North 19.6 mph - N/A   Clear
4:35 PM 66.2 °F 23.0 °F 19% 30.13 in 10.0 mi NNW 20.7 mph - N/A   Clear
4:55 PM 64.4 °F 24.8 °F 22% 30.13 in 10.0 mi NNW 15.0 mph - N/A   Clear
5:15 PM 64.4 °F 24.8 °F 22% 30.13 in 10.0 mi NNW 16.1 mph - N/A   Clear
5:35 PM 64.4 °F 24.8 °F 22% 30.13 in 10.0 mi NNW 11.5 mph 17.3 mph N/A   Clear
5:55 PM 64.4 °F 24.8 °F 22% 30.13 in 10.0 mi NNW 13.8 mph - N/A   Clear
6:15 PM 62.6 °F 26.6 °F 26% 30.13 in 10.0 mi NNW 9.2 mph - N/A   Clear
6:35 PM 62.6 °F 26.6 °F 26% 30.13 in 10.0 mi North 6.9 mph - N/A   Clear
6:55 PM 60.8 °F 24.8 °F 25% 30.13 in 10.0 mi NNE 8.1 mph - N/A   Clear
7:15 PM 60.8 °F 23.0 °F 23% 30.13 in 10.0 mi North 9.2 mph - N/A   Clear
7:35 PM 59.0 °F 24.8 °F 27% 30.13 in 10.0 mi NNW 8.1 mph - N/A   Clear
7:55 PM 59.0 °F 23.0 °F 25% 30.13 in 10.0 mi NNE 8.1 mph - N/A   Clear
8:15 PM 59.0 °F 24.8 °F 27% 30.13 in 10.0 mi NNW 5.8 mph - N/A   Clear
8:35 PM 59.0 °F 24.8 °F 27% 30.14 in 10.0 mi NNE 6.9 mph - N/A   Clear
8:55 PM 59.0 °F 23.0 °F 25% 30.14 in 10.0 mi NNE 6.9 mph - N/A   Clear
9:15 PM 57.2 °F 23.0 °F 27% 30.14 in 10.0 mi NNE 9.2 mph - N/A   Clear
9:35 PM 59.0 °F 23.0 °F 25% 30.14 in 10.0 mi NNE 11.5 mph - N/A   Clear
9:55 PM 59.0 °F 24.8 °F 27% 30.15 in 10.0 mi North 3.5 mph - N/A   Clear
10:15 PM 59.0 °F 24.8 °F 27% 30.15 in 10.0 mi NNE 4.6 mph - N/A   Clear
10:55 PM 55.4 °F 24.8 °F 31% 30.16 in 10.0 mi North 4.6 mph - N/A   Clear
11:15 PM 55.4 °F 26.6 °F 33% 30.16 in 10.0 mi North 3.5 mph - N/A   Clear
11:35 PM 55.4 °F 24.8 °F 31% 30.16 in 10.0 mi NE 5.8 mph - N/A   Clear
11:55 PM 55.4 °F 24.8 °F 31% 30.16 in 10.0 mi NNE 4.6 mph - N/A   Clear